Location: Aultman
(40.9284°N, 81.4173°W)
Time: 09:35:54
(UTC+00:00)

CZ-4B DEB - Pass Details

Date: 24 January 2021
Orbit: 840 x 861 km, 99.1° (Epoch: 02 March)

Event Time Altitude Azimuth Distance (km) Brightness Sun altitude
Rises 12:04:14 0° 8° (N) 3,448 7.3 -7.6°
Reaches altitude 10° 12:06:41 10° 3° (N) 2,508 6.5 -7.2°
Maximum altitude 12:12:00 48° 291° (WNW) 1,122 4.5 -6.2°
Drops below altitude 10° 12:17:16 10° 218° (SW) 2,488 6.5 -5.3°
Sets 12:19:42 0° 213° (SSW) 3,418 7.2 -4.8°
